sat.trackr.live / text

‹ back to catalog

STARLINK-37152

NORAD 68616 · 2026-073Q

PAYLOAD ACTIVE UNKNOWN

§ Identity

Operator
Country
US
Launch date
2026-04-07
Launch site
AFWTR
Launch vehicle
Mass (kg)
RCS (m²)

Purposes: comms

External: N2YO · Heavens-Above · Gunter

§ Orbital elements

Epoch: 2026-09-19T23:48:16.235712Z

Period
93.91 min
Inclination
97.2861°
Eccentricity
0.0001644
Mean motion
15.33452742 rev/d
Perigee alt
464.4 km
Apogee alt
466.6 km
Semi-major
6,843.7 km
B*
2.6381e-4
RAAN
101.0264°
Arg perigee
96.0964°
Mean anomaly
264.0466°
Rev number
2,566

§ Raw data

STARLINK-371521 68616U 26073Q   26262.99185458  .00008453  00000+0  26381-3 0  99942 68616  97.2861 101.0264 0001644  96.0964 264.0466 15.33452742 25668

JSON: /api/v1/satellites/68616 · /tle

For live sub-satellite position, see the globe view (requires WebGL).

§ Visibility from observer

Set your observer location to see the next 7 days of passes ≥ 10°. The values pass through the URL so the page stays shareable.

No JS? Fill the form by hand. The geolocation button needs JavaScript.